STARLINK-32636, 62232

Orbit data source: Space-Track

STARLINK-32636, 62232 is a payload satellite owned by SpaceX/Seattle (US) in LEO that was launched on Thu, 05 Dec 2024 UTC via an FALCON 9 launch vehicle from the Air Force Western Test Range (AFWTR). Payload-class satellites include a variety of spacecraft equipped with specific instruments for various scientific and technological missions. These include communications satellites like Starlink; space stations such as the ISS; scientific satellites like the Hubble; Earth observation satellites from companies like Planet Labs, Umbra, and HawkEye 360; GPS; miniature CubeSats for education and research; and military/defense satellites.

Loading next visibility...
Identifier
62232, 2024-231Q
Orbit
LEO
Country
Flag of USUS
Related business
Manufacturer
SpaceX/Seattle
Mission
Operational Commercial Communications
Bus & Motor
STARLINK V2M, Unknown motor
Mass
730 kg wet, ~700 kg dry
Launch date (UTC)
2024-12-05 (11 months ago)
Launch vehicle
FALCON 9
Launch site
Air Force Western Test Range (AFWTR)
Object type
Payload
Rocket body
Debris
Shape & HBR
Box + 2 Pan, 17.7 m
Radar Cross Section
33.884 m², Large (>1 m²)

Expand to show TLE details & history
Last TLE update: 18 hours ago

TLE from 18 hours ago
0 STARLINK-32636
1 62232U 24231Q   25308.10032882  .00022135  00000-0  75711-3 0  9996
2 62232  53.1576  82.7289 0001497  91.2044 268.9129 15.30206085 52544
Epoch: 2025-11-04T02:24Z
TLE epoch observation values (Epoch: 2025-11-04T02:24:28.410Z)
Latitude
0.00006°
Longitude
3.01837°
Altitude
476.116 km
Speed
7.629 km/s
True Right ascension
05h 30m 54s
True Declination
0° 00' 00"
Sunlit
Object was in full shadow at epoch
Visualization orbit readout
Latitude
Unknown
Longitude
Unknown
Altitude
Unknown
Speed
Unknown
Apparent Right ascension
Unknown
Apparent Declination
Unknown
Sunlit
N/A
Visualization observer readout
Local Sidereal Time
16:50:37
Azimuth
Unknown
Elevation
Unknown
Doppler factor
Unknown
Orbital elements
Apogee altitude
476.48 km
Perigee altitude
474.428 km
Semi-major axis
6,853.591 km
Eccentricity
0.00015
Inclination
53.1576°
RAAN
82.7289°
Arg. of periapsis
91.2044°
True anomaly
268.89575°
Mean anomaly
268.9129°
Eccentric anomaly
268.90432°
Mean motion
3.8253 °/min
Orbital period
94.11 mins
BSTAR
0.00075711
Loading maneuver chart data...
Computing Atmospheric mass density...
Loading historical data...
Loading historical data...
Loading historical data...
Loading historical data...
Loading historical data...
Loading historical data...
Loading historical data...

Documentation

Showing up to 5 results
|